Regional Weather Roundup
Issued by NWS

Home | Current Version | Previous Version | Graphics & Text | Print | Product List | Glossary Off
Versions: 1 2 3 4 5 6 7 8 9 10 11 12 13 14 15 16 17 18 19 20 21 22 23 24 25 26 27 28 29 30 31 32 33 34 35 36 37 38 39 40 41 42 43 44 45 46 47 48 49 50

000
ASUS43 KTOP 200059
RWRKS

WEATHER ROUNDUP FOR KANSAS
NATIONAL WEATHER SERVICE GOODLAND KS
800 PM CDT SUN APR 19 2015

NOTE:  "FAIR" INDICATES FEW OR NO CLOUDS BELOW 12,000 FEET WITH NO
SIGNIFICANT WEATHER AND/OR OBSTRUCTIONS TO VISIBILITY.

KSZ001>006-013>018-027>032-041>047-200200-
NORTHWEST KANSAS

CITY           SKY/WX    TMP DP  RH WIND       PRES   REMARKS
GOODLAND       PTCLDY    47  25  42 N18       29.98S
HAYS           CLOUDY    54  25  32 NW17G28   29.89S
HILL CITY      PTCLDY    52  27  38 N17G26    29.91S
RUSSELL        MOCLDY    54  28  36 N21       29.86R
$$

KSZ061>065-074>080-084>089-200200-
SOUTHWEST KANSAS

CITY           SKY/WX    TMP DP  RH WIND       PRES   REMARKS
DODGE CITY     CLOUDY    52  22  30 NW22G33   29.93R
ELKHART          N/A    N/A N/A N/A MISG        N/A
GARDEN CITY    PTCLDY    50  22  33 N18G28    29.95F
GREAT BEND     PTCLDY    52  32  46 N13G21    29.88R
LIBERAL        CLEAR     54  25  32 N17       29.98S
$$

KSZ066>073-081>083-090>101-200200-
SOUTHEAST KANSAS

CITY           SKY/WX    TMP DP  RH WIND       PRES   REMARKS
CHANUTE        CLOUDY    53  43  68 NW22G32   29.74R
COFFEYVILLE    MOCLDY    53  47  79 N18G25    29.74R
HUTCHINSON     MOCLDY    53  32  44 N16       29.85R
MEDICINE LODGE   N/A     53  35  50 N12       29.87R
NEWTON         CLOUDY    48  34  57 N12       29.84S
PARSONS        CLOUDY    53  46  77 N18G31    29.75R
WICHITA INTL   MOCLDY    51  35  54 N17       29.84R
WICHITA JABRA  CLOUDY    51  36  56 N16       29.83R
WINFIELD       MOCLDY    51  40  65 NW21G26   29.84R
$$

KSZ007>012-019>026-033>040-048>060-102>105-200200-
NORTHEAST KANSAS

CITY           SKY/WX    TMP DP  RH WIND       PRES   REMARKS
CONCORDIA      MOCLDY    52  34  50 N12       29.82R
EMPORIA        CLOUDY    51  37  58 NW10G21   29.78R
LAWRENCE       LGT RAIN  52  41  66 N22G32    29.72S
MANHATTAN      CLOUDY    54  35  48 NW7       29.78S
OLATHE IND     CLOUDY    51  43  74 NW18G29   29.72R
OLATHE EXE     CLOUDY    52  44  74 NW18G31   29.70R
SALINA         CLOUDY    53  34  48 NW14      29.83S
TOPEKA BILLARD CLOUDY    51  40  65 NW9       29.75R
TOPEKA FORBES  CLOUDY    52  39  61 NW16      29.74R
$$



USA.gov is the U.S. government's official web portal to all federal, state and local government web resources and services.